| time (UTC) | temp F | wind direction | speed knots | gust knots | rain 1hr in | rain 24hr in | rain mn in | humidity % | barometer mb |
| 20260505071529 | 64 | 159 | 4.3 | 7.8 | 0.00 | 0.00 | 0.00 | 71 | 1005.8 |
| 20260505070017 | 64 | 146 | 2.6 | 9.6 | 0.00 | 0.00 | 0.00 | 71 | 1005.8 |
| 20260505064502 | 64 | 199 | 3.5 | 13.0 | 0.00 | 0.00 | 0.00 | 70 | 1005.9 |
| 20260505063008 | 64 | 183 | 3.5 | 9.6 | 0.00 | 0.00 | 0.00 | 70 | 1005.8 |
| 20260505061512 | 64 | 223 | 3.5 | 7.8 | 0.00 | 0.00 | 0.00 | 70 | 1005.7 |
| 20260505060016 | 64 | 174 | 5.2 | 8.7 | 0.00 | 0.00 | 0.00 | 70 | 1005.7 |
| 20260505054522 | 65 | 188 | 4.3 | 7.8 | 0.00 | 0.00 | 0.00 | 70 | 1005.9 |
| 20260505053007 | 65 | 169 | 4.3 | 9.6 | 0.00 | 0.00 | 0.00 | 70 | 1006.3 |
| 20260505051530 | 64 | 166 | 4.3 | 7.8 | 0.00 | 0.00 | 0.00 | 70 | 1005.8 |
| 20260505041506 | 65 | 164 | 6.1 | 11.3 | 0.00 | 0.00 | 0.00 | 69 | 1006.4 |
| 20260505040015 | 65 | 139 | 4.3 | 9.6 | 0.00 | 0.00 | 0.00 | 68 | 1006.6 |
| 20260505034519 | 66 | 198 | 6.1 | 9.6 | 0.00 | 0.00 | 0.00 | 67 | 1006.6 |
| 20260505033021 | 66 | 195 | 3.5 | 8.7 | 0.00 | 0.00 | 0.00 | 67 | 1006.9 |
| 20260505031506 | 66 | 180 | 4.3 | 8.7 | 0.00 | 0.00 | 0.00 | 66 | 1006.8 |
| 20260505030011 | 67 | 178 | 3.5 | 6.1 | 0.00 | 0.00 | 0.00 | 65 | 1006.9 |
| 20260505024518 | 67 | 173 | 1.7 | 9.6 | 0.00 | 0.00 | 0.00 | 64 | 1006.9 |
| 20260505023021 | 68 | 193 | 3.5 | 8.7 | 0.00 | 0.00 | 0.00 | 63 | 1006.5 |
| 20260505021523 | 68 | 179 | 3.5 | 7.0 | 0.00 | 0.00 | 0.00 | 62 | 1006.3 |
| 20260505014514 | 69 | 164 | 3.5 | 6.1 | 0.00 | 0.00 | 0.00 | 60 | 1005.8 |
| 20260505013021 | 70 | 175 | 2.6 | 8.7 | 0.00 | 0.00 | 0.00 | 59 | 1005.6 |
| 20260505011522 | 70 | 215 | 0.9 | 5.2 | 0.00 | 0.00 | 0.00 | 58 | 1005.6 |
| 20260505010026 | 71 | 171 | 1.7 | 5.2 | 0.00 | 0.00 | 0.00 | 56 | 1005.3 |
| 20260505004513 | 72 | 212 | 2.6 | 4.3 | 0.00 | 0.00 | 0.00 | 53 | 1005.3 |
| 20260505003021 | 73 | 189 | 2.6 | 6.1 | 0.00 | 0.00 | 0.00 | 51 | 1005.2 |
| 20260505001524 | 74 | 205 | 4.3 | 8.7 | 0.00 | 0.00 | 0.00 | 51 | 1005.2 |
| 20260505000025 | 74 | 178 | 5.2 | 11.3 | 0.00 | 0.00 | 0.00 | 50 | 1005.2 |
| 20260504233018 | 77 | 169 | 3.5 | 10.4 | 0.00 | 0.00 | 0.00 | 48 | 1005.3 |
| 20260504231524 | 77 | 185 | 6.1 | 9.6 | 0.00 | 0.00 | 0.00 | 48 | 1005.4 |
| 20260504230026 | 77 | 163 | 5.2 | 13.9 | 0.00 | 0.00 | 0.00 | 48 | 1005.4 |
| 20260504224528 | 78 | 138 | 7.0 | 14.8 | 0.00 | 0.00 | 0.00 | 45 | 1005.4 |
| 20260504220022 | 79 | 211 | 6.1 | 13.0 | 0.00 | 0.00 | 0.00 | 47 | 1005.4 |
| 20260504214526 | 78 | 198 | 6.1 | 14.8 | 0.00 | 0.00 | 0.00 | 45 | 1005.5 |
| 20260504213027 | 79 | 210 | 3.5 | 16.5 | 0.00 | 0.00 | 0.00 | 46 | 1005.6 |
| 20260504211514 | 79 | 163 | 6.1 | 13.0 | 0.00 | 0.00 | 0.00 | 45 | 1005.7 |
| 20260504210003 | 79 | 157 | 6.1 | 14.8 | 0.00 | 0.00 | 0.00 | 45 | 1005.8 |
| 20260504204509 | 79 | 221 | 7.8 | 14.8 | 0.00 | 0.00 | 0.00 | 45 | 1006.1 |
| 20260504200017 | 79 | 223 | 6.1 | 14.8 | 0.00 | 0.00 | 0.00 | 46 | 1006.7 |
| 20260504194508 | 79 | 159 | 7.0 | 14.8 | 0.00 | 0.00 | 0.00 | 48 | 1006.8 |
| 20260504191523 | 78 | 261 | 6.1 | 15.6 | 0.00 | 0.00 | 0.00 | 48 | 1007.0 |
| 20260504190019 | 78 | 153 | 6.1 | 16.5 | 0.00 | 0.00 | 0.00 | 49 | 1007.0 |
| 20260504184508 | 78 | 209 | 7.8 | 14.8 | 0.00 | 0.00 | 0.00 | 48 | 1007.2 |
| 20260504183010 | 78 | 256 | 8.7 | 16.5 | 0.00 | 0.00 | 0.00 | 49 | 1007.1 |
| 20260504181515 | 77 | 220 | 7.8 | 17.4 | 0.00 | 0.00 | 0.00 | 49 | 1007.0 |
| 20260504180021 | 77 | 204 | 3.5 | 14.8 | 0.00 | 0.00 | 0.00 | 52 | 1007.0 |
| 20260504174522 | 77 | 203 | 7.8 | 14.8 | 0.00 | 0.00 | 0.00 | 49 | 1007.1 |
| 20260504173010 | 76 | 219 | 7.0 | 17.4 | 0.00 | 0.00 | 0.00 | 48 | 1007.1 |
| 20260504171513 | 76 | 227 | 8.7 | 14.8 | 0.00 | 0.00 | 0.00 | 49 | 1007.1 |
| 20260504081518 | 61 | 165 | 3.5 | 7.0 | 0.00 | 0.00 | 0.00 | 64 | 1010.1 |